Regional Weather Roundup
Issued by NWS

Home | Current Version | Previous Version | Graphics & Text | Print | Product List | Glossary On
Versions: 1 2 3 4 5 6 7 8 9 10 11 12 13 14 15 16 17 18 19 20 21 22 23 24 25 26 27 28 29 30 31 32 33 34 35 36 37 38 39 40 41 42 43 44 45 46 47 48 49 50
000
ASUS45 KSLC 030110
RWRUT

UTAH REGIONAL WEATHER ROUNDUP
NATIONAL WEATHER SERVICE SALT LAKE CITY UT
600 PM MST MON MAR 02 2015

UTZ001>011-023>025-030200-

NORTHERN UTAH

CITY           SKY/WX    TMP DP  RH WIND       PRES   REMARKS
BRIGHAM CITY   CLOUDY    35  32  92 CALM      29.66R
HILL AFB       SNOW      32  32 100 NW6       29.63R VSB 1/4 WCI  26
LOGAN          LGT SNOW  34  32  92 NW3       29.63R FOG
OGDEN          MIX PCPN  34  34 100 N6        29.63R FOG     WCI  29
PROVO AIRPORT  CLOUDY    39  36  87 SW13      29.66R WCI  32
SALT LAKE CITY SNOW      35  33  92 W6        29.65R VSB 1/2 WCI  30
VERNAL         FOG       32  31  96 SE7       29.64S VSB 1/4 WCI  26
WENDOVER       CLOUDY    36  32  87 S7        29.70R WCI  30
HEBER CITY     FLURRIES  34  32  93 SW9       29.61R WCI  26
WEST JORDAN    CLOUDY    36  36 100 NW10      29.65R WCI  28

$$

UTZ012>022-026-027-030200-

SOUTHERN/CENTRAL UTAH

CITY           SKY/WX    TMP DP  RH WIND       PRES   REMARKS
BLANDING       CLOUDY    34  33  96 S5        29.88R WCI  30
BRYCE CANYON   PTCLDY    28  19  69 SW15      29.75R WCI  16
CEDAR CITY     LGT SNOW  32  30  92 S13       29.78R FOG     WCI  22
DELTA          CLOUDY    37  35  95 S16G22    29.70R WCI  27
HANKSVILLE     PTCLDY    45  30  57 SW15G23   29.71R
MILFORD        MOCLDY    35  31  85 S23       29.72R WCI  23
MOAB/CYNLANDS  PTCLDY    43  35  73 S17G25    29.66F
PRICE          LGT SNOW  33  31  92 CALM      29.64S VSB 1
ST GEORGE      CLOUDY    46  36  66 NW18      29.84R
KANAB          MOCLDY    36  32  87 SW8       29.85R WCI  29

$$

REGIONAL REPORTS     COLORADO/ARIZONA

CITY           SKY/WX    TMP DP  RH WIND       PRES   REMARKS
CRAIG, CO      MIX PCPN  34  32  92 SW8       29.64S WCI  27
GRAND JUNCTION LGT RAIN  39  36  89 NW15G28   29.71R WCI  31
RIFLE          RAIN      38  35  89 W21G31    29.67R FOG     WCI  28
MONTROSE       LGT RAIN  40  34  79 W14       29.77  WCI  32
CORTEZ         MIX PCPN  36  33  89 W10       29.86R WCI  28
PAGE, AZ       PTCLDY    47  32  56 SW7       29.78R
GRAND CANYON   MOCLDY    31  29  92 SW13      29.86R FOG     WCI  21
KINGMAN        PTCLDY    47  36  65 SW15      29.86R
FLAGSTAFF      LGT SNOW  30  26  85 SW18      29.88R FOG     WCI  18

$$

REGIONAL REPORTS    NEVADA/IDAHO/WYOMING

CITY           SKY/WX    TMP DP  RH WIND       PRES   REMARKS
LAS VEGAS, NV  MOCLDY    56  30  37 SW16G23   29.77R
ELY            LGT SNOW  30  28  92 CALM      29.73R VSB 1
ELKO           PTCLDY    39  24  55 NW18G24   29.70R WCI  30
POCATELLO, ID  MOCLDY    39  23  52 SW6       29.62F WCI  35
BURLEY         PTCLDY    45  14  28 NW8       29.62R
EVANSTON, WY   CLOUDY    31  27  85 W9        29.57R WCI  23
ROCK SPRINGS   CLOUDY    29  27  92 SW9       29.58F WCI  20
KEMMERER       CLOUDY    30  27  86 E3        29.57R

$$



USA.gov is the U.S. government's official web portal to all federal, state and local government web resources and services.